Find Starlink 5090

NORAD ID: 56137 Int'l Des: 2023-046 Owner: SPXS Country: US Constellation: starlink operational
LEOCIRCULAR

Live Position

Loading 3D Globe...

About Starlink 5090

Description loading...

Upcoming Passes

Passes for default location (London). Set your location on the main map for personalized predictions.

Altitude History

Loading altitude history...

Two-Line Element Set

1 56137U 23046AX 26105.33335647 -.00004192 00000-0 -14290-3 0 9992
2 56137 43.0010 299.9598 0001792 259.6048 157.3874 15.27572929 5814
Epoch: Apr 15, 2026 • Age: 14 hours

Current Status

Altitude 485.8 km
Velocity 7.63 km/s
Sub-Earth Point 36.42°N, 115.38°W
Launch Date Mar 29, 2023
Age 3 years
Type internet

Technical Details

Classification Payload
Mass 305.00 kg
Dry Mass 290.00 kg
Total Mass 305.00 kg
Length 0.20 m
Diameter 2.80 m
Span 9.00 m
Shape Box + pan
Manufacturer SPXS
Bus Type Starlink
Phase Status In Orbit
Owner/State SPXS/US

Most Searched